User: anonymous
Location: NJAA Observatory
(40.6819°N, 74.8979°W)
Time: 07:31:28
(UTC-04:00)
Language:

Iridium 4 - Orbit

View from above orbital plane
View from above orbital plane
View from above satellite
View from above satellite

Ground track
Ground track

The orbit data is extracted from the following two-line orbital elements,

1 24796U 97020E   14259.39697419  .00000381  00000-0  12793-3 0  9970
2 24796 086.4000 018.4113 0002297 111.1147 284.0658 14.34694429909212
Epoch (UTC): 16 September 2014 09:31:38
Eccentricity: 0.0002297
inclination: 86.4000°
perigee height: 774 km
apogee height: 778 km
right ascension of ascending node: 18.4113°
argument of perigee: 111.1147°
revolutions per day: 14.34694429
mean anomaly at epoch: 284.0658°
orbit number at epoch: 90921

The dashed part of the orbit path shows where the satellite is in the earth's shadow,  

DLR